Starlink 32193

operational
NORAD ID: 60428 Int'l Des: 2024-144 Owner: SPXS Country: US Constellation: starlink
LEOCIRCULAR

Starlink 32193について

説明を読み込み中...

リアルタイム位置

3D地球を読み込み中...

次回通過

高度履歴

Altitude vs Time

uPlot chart will show altitude changes over time

軌道要素

1 60428U 24144D 25257.45559311 -.00001015 00000-0 -22171-4 0 9995
2 60428 53.1583 315.9578 0000943 60.5520 299.5575 15.30188021 62367
Epoch: Sep 14, 2025 • Age: 26 hours

現在のステータス

高度 478.3 km
速度 7.63 km/s
衛星直下点 38.72°N, 89.05°W
打ち上げ日 Aug 12, 2024
運用期間 1 years
タイプ internet

技術仕様

分類 Payload
質量 730.00 kg
乾燥質量 700.00 kg
総質量 730.00 kg
長さ 0.30 m
直径 4.10 m
スパン 29.00 m
形状 Box + pan
製造者 SPXS
バスタイプ Starlink V2M
フェーズステータス In Orbit
所有者/国 SPXS/US

大規模コンステレーション

Loading constellations...